| time (UTC) | temp F | wind direction | speed knots | gust knots | rain 1hr in | rain 24hr in | rain mn in | humidity % | barometer mb |
| 20260506180005 | 69 | 198 | 2.6 | 12.2 | 0.00 | 0.00 | 0.00 | 54 | 1002.7 |
| 20260506175503 | 69 | 184 | 3.5 | 8.7 | 0.00 | 0.00 | 0.00 | 54 | 1002.7 |
| 20260506175004 | 69 | 201 | 4.3 | 9.6 | 0.00 | 0.00 | 0.00 | 53 | 1002.6 |
| 20260506174503 | 70 | 229 | 3.5 | 9.6 | 0.00 | 0.00 | 0.00 | 52 | 1002.8 |
| 20260506174004 | 70 | 217 | 3.5 | 7.8 | 0.00 | 0.00 | 0.00 | 52 | 1003.0 |
| 20260506173503 | 70 | 203 | 2.6 | 7.0 | 0.00 | 0.00 | 0.00 | 52 | 1002.6 |
| 20260506173004 | 70 | 213 | 3.5 | 11.3 | 0.00 | 0.00 | 0.00 | 52 | 1002.8 |
| 20260506172503 | 70 | 222 | 3.5 | 11.3 | 0.00 | 0.00 | 0.00 | 51 | 1002.7 |
| 20260506172003 | 70 | 214 | 2.6 | 9.6 | 0.00 | 0.00 | 0.00 | 51 | 1002.8 |
| 20260506171504 | 70 | 189 | 2.6 | 9.6 | 0.00 | 0.00 | 0.00 | 50 | 1002.8 |
| 20260506171003 | 71 | 195 | 2.6 | 9.6 | 0.00 | 0.00 | 0.00 | 50 | 1002.8 |
| 20260506170503 | 71 | 200 | 1.7 | 7.8 | 0.00 | 0.00 | 0.00 | 50 | 1002.9 |
| 20260506170004 | 71 | 194 | 1.7 | 7.8 | 0.00 | 0.00 | 0.00 | 49 | 1002.9 |
| 20260506165503 | 72 | 219 | 1.7 | 9.6 | 0.00 | 0.00 | 0.00 | 48 | 1002.7 |
| 20260506165003 | 72 | 237 | 2.6 | 9.6 | 0.00 | 0.00 | 0.00 | 48 | 1002.8 |
| 20260506164524 | 72 | 228 | 2.6 | 9.6 | 0.00 | 0.00 | 0.00 | 48 | 1002.7 |
| 20260506164003 | 72 | 215 | 2.6 | 7.8 | 0.00 | 0.00 | 0.00 | 48 | 1002.9 |
| 20260506163503 | 72 | 215 | 2.6 | 7.8 | 0.00 | 0.00 | 0.00 | 47 | 1002.6 |
| 20260506163003 | 72 | 204 | 2.6 | 7.8 | 0.00 | 0.00 | 0.00 | 47 | 1002.9 |
| 20260506162524 | 73 | 199 | 2.6 | 7.8 | 0.00 | 0.00 | 0.00 | 47 | 1002.6 |
| 20260506162004 | 73 | 204 | 2.6 | 8.7 | 0.00 | 0.00 | 0.00 | 47 | 1003.1 |
| 20260506161504 | 73 | 221 | 3.5 | 11.3 | 0.00 | 0.00 | 0.00 | 47 | 1003.1 |
| 20260506161004 | 73 | 210 | 3.5 | 11.3 | 0.00 | 0.00 | 0.00 | 47 | 1003.0 |
| 20260506160504 | 73 | 193 | 3.5 | 12.2 | 0.00 | 0.00 | 0.00 | 47 | 1003.4 |
| 20260506160025 | 73 | 224 | 3.5 | 12.2 | 0.00 | 0.00 | 0.00 | 46 | 1003.2 |
| 20260506155504 | 73 | 229 | 3.5 | 12.2 | 0.00 | 0.00 | 0.00 | 46 | 1003.5 |
| 20260506155003 | 74 | 224 | 2.6 | 7.8 | 0.00 | 0.00 | 0.00 | 46 | 1003.3 |
| 20260506154504 | 74 | 205 | 2.6 | 7.8 | 0.00 | 0.00 | 0.00 | 45 | 1003.4 |
| 20260506154003 | 74 | 205 | 3.5 | 7.8 | 0.00 | 0.00 | 0.00 | 47 | 1003.6 |
| 20260506153504 | 75 | 206 | 2.6 | 7.8 | 0.00 | 0.00 | 0.00 | 45 | 1003.6 |
| 20260506153003 | 74 | 196 | 2.6 | 9.6 | 0.00 | 0.00 | 0.00 | 46 | 1003.7 |
| 20260506152524 | 74 | 215 | 3.5 | 11.3 | 0.00 | 0.00 | 0.00 | 46 | 1003.8 |
| 20260506152003 | 74 | 235 | 3.5 | 11.3 | 0.00 | 0.00 | 0.00 | 46 | 1003.6 |
| 20260506151504 | 74 | 221 | 2.6 | 8.7 | 0.00 | 0.00 | 0.00 | 46 | 1003.8 |
| 20260506151024 | 73 | 199 | 2.6 | 8.7 | 0.00 | 0.00 | 0.00 | 49 | 1003.9 |
| 20260506150504 | 72 | 202 | 2.6 | 8.7 | 0.00 | 0.00 | 0.00 | 49 | 1004.3 |
| 20260506150004 | 72 | 187 | 2.6 | 8.7 | 0.00 | 0.00 | 0.00 | 49 | 1004.0 |
| 20260506145503 | 72 | 200 | 3.5 | 8.7 | 0.00 | 0.00 | 0.00 | 49 | 1004.5 |
| 20260506145003 | 72 | 231 | 3.5 | 9.6 | 0.00 | 0.00 | 0.00 | 50 | 1004.3 |
| 20260506144503 | 72 | 233 | 2.6 | 9.6 | 0.00 | 0.00 | 0.00 | 49 | 1004.0 |
| 20260506144024 | 72 | 211 | 2.6 | 9.6 | 0.00 | 0.00 | 0.00 | 49 | 1004.5 |
| 20260506143504 | 72 | 202 | 2.6 | 8.7 | 0.00 | 0.00 | 0.00 | 50 | 1004.3 |
| 20260506143003 | 72 | 162 | 2.6 | 8.7 | 0.00 | 0.00 | 0.00 | 50 | 1004.4 |
| 20260506142503 | 72 | 125 | 2.6 | 8.7 | 0.00 | 0.00 | 0.00 | 52 | 1004.3 |
| 20260506142003 | 71 | 135 | 2.6 | 8.7 | 0.00 | 0.00 | 0.00 | 52 | 1004.3 |
| 20260506141503 | 71 | 184 | 2.6 | 8.7 | 0.00 | 0.00 | 0.00 | 51 | 1004.2 |
| 20260506141003 | 71 | 192 | 2.6 | 8.7 | 0.00 | 0.00 | 0.00 | 51 | 1004.4 |
| 20260506140503 | 71 | 213 | 2.6 | 9.6 | 0.00 | 0.00 | 0.00 | 51 | 1004.4 |
| 20260506140004 | 71 | 229 | 4.3 | 9.6 | 0.00 | 0.00 | 0.00 | 50 | 1004.8 |
| 20260506135504 | 72 | 202 | 3.5 | 9.6 | 0.00 | 0.00 | 0.00 | 50 | 1004.5 |
| 20260506135004 | 72 | 121 | 1.7 | 9.6 | 0.00 | 0.00 | 0.00 | 51 | 1004.6 |
| 20260506134504 | 73 | 113 | 1.7 | 3.5 | 0.00 | 0.00 | 0.00 | 49 | 1004.6 |
| 20260506134024 | 74 | 166 | 1.7 | 3.5 | 0.00 | 0.00 | 0.00 | 49 | 1004.6 |
| 20260506133503 | 72 | 189 | 1.7 | 7.8 | 0.00 | 0.00 | 0.00 | 48 | 1004.8 |
| 20260506133004 | 71 | 198 | 2.6 | 7.8 | 0.00 | 0.00 | 0.00 | 49 | 1004.9 |
| 20260506132503 | 71 | 204 | 2.6 | 7.8 | 0.00 | 0.00 | 0.00 | 49 | 1004.9 |
| 20260506132004 | 71 | 204 | 1.7 | 8.7 | 0.00 | 0.00 | 0.00 | 49 | 1005.0 |
| 20260506131504 | 71 | 217 | 2.6 | 8.7 | 0.00 | 0.00 | 0.00 | 49 | 1005.3 |
| 20260506131003 | 72 | 223 | 2.6 | 8.7 | 0.00 | 0.00 | 0.00 | 48 | 1005.1 |
| 20260506130503 | 73 | 224 | 1.7 | 8.7 | 0.00 | 0.00 | 0.00 | 47 | 1005.6 |
| 20260506130004 | 73 | 227 | 2.6 | 8.7 | 0.00 | 0.00 | 0.00 | 47 | 1005.4 |
| 20260506125504 | 72 | 230 | 1.7 | 5.2 | 0.00 | 0.00 | 0.00 | 47 | 1005.4 |
| 20260506125004 | 71 | 220 | 1.7 | 5.2 | 0.00 | 0.00 | 0.00 | 48 | 1005.5 |
| 20260506124504 | 72 | 174 | 1.7 | 11.3 | 0.00 | 0.00 | 0.00 | 48 | 1005.5 |
| 20260506124004 | 72 | 198 | 2.6 | 11.3 | 0.00 | 0.00 | 0.00 | 48 | 1005.6 |
| 20260506123504 | 72 | 228 | 2.6 | 11.3 | 0.00 | 0.00 | 0.00 | 48 | 1005.6 |
| 20260506123003 | 73 | 131 | 1.7 | 11.3 | 0.00 | 0.00 | 0.00 | 48 | 1005.7 |
| 20260506122503 | 72 | 155 | 2.6 | 11.3 | 0.00 | 0.00 | 0.00 | 48 | 1005.6 |
| 20260506122004 | 74 | 219 | 2.6 | 6.1 | 0.00 | 0.00 | 0.00 | 46 | 1005.6 |
| 20260506121503 | 74 | 215 | 2.6 | 7.8 | 0.00 | 0.00 | 0.00 | 46 | 1005.6 |
| 20260506121003 | 72 | 215 | 2.6 | 7.8 | 0.00 | 0.00 | 0.00 | 48 | 1005.7 |
| 20260506120503 | 73 | 210 | 2.6 | 7.8 | 0.00 | 0.00 | 0.00 | 46 | 1005.8 |
| 20260506120004 | 73 | 213 | 1.7 | 6.1 | 0.00 | 0.00 | 0.00 | 45 | 1005.7 |
| 20260506115504 | 73 | 212 | 1.7 | 7.0 | 0.00 | 0.00 | 0.00 | 45 | 1005.8 |
| 20260506115025 | 73 | 223 | 1.7 | 7.0 | 0.00 | 0.00 | 0.00 | 47 | 1006.0 |
| 20260506114503 | 74 | 208 | 1.7 | 6.1 | 0.00 | 0.00 | 0.00 | 46 | 1005.8 |
| 20260506114003 | 74 | 220 | 2.6 | 6.1 | 0.00 | 0.00 | 0.00 | 47 | 1005.7 |
| 20260506113504 | 73 | 218 | 2.6 | 6.1 | 0.00 | 0.00 | 0.00 | 46 | 1005.8 |
| 20260506113003 | 73 | 212 | 2.6 | 6.1 | 0.00 | 0.00 | 0.00 | 46 | 1005.8 |
| 20260506112504 | 72 | 208 | 2.6 | 6.1 | 0.00 | 0.00 | 0.00 | 47 | 1006.0 |
| 20260506112003 | 73 | 166 | 1.7 | 6.1 | 0.00 | 0.00 | 0.00 | 47 | 1005.9 |
| 20260506111503 | 73 | 158 | 0.9 | 5.2 | 0.00 | 0.00 | 0.00 | 48 | 1005.9 |
| 20260506111004 | 73 | 188 | 0.9 | 3.5 | 0.00 | 0.00 | 0.00 | 48 | 1005.9 |
| 20260506110524 | 73 | 207 | 1.7 | 6.1 | 0.00 | 0.00 | 0.00 | 48 | 1006.0 |
| 20260506110004 | 72 | 201 | 1.7 | 6.1 | 0.00 | 0.00 | 0.00 | 48 | 1006.1 |
| 20260506105503 | 72 | 155 | 1.7 | 7.8 | 0.00 | 0.00 | 0.00 | 47 | 1006.2 |
| 20260506105003 | 72 | 129 | 1.7 | 7.8 | 0.00 | 0.00 | 0.00 | 47 | 1006.1 |
| 20260506104504 | 72 | 136 | 1.7 | 5.2 | 0.00 | 0.00 | 0.00 | 47 | 1006.0 |
| 20260506104004 | 72 | 209 | 2.6 | 6.1 | 0.00 | 0.00 | 0.00 | 48 | 1006.0 |
| 20260506103504 | 72 | 231 | 2.6 | 9.6 | 0.00 | 0.00 | 0.00 | 50 | 1006.4 |
| 20260506103004 | 73 | 230 | 3.5 | 9.6 | 0.00 | 0.00 | 0.00 | 48 | 1006.3 |
| 20260506102524 | 73 | 216 | 2.6 | 9.6 | 0.00 | 0.00 | 0.00 | 48 | 1006.1 |
| 20260506102024 | 73 | 96 | 1.7 | 6.1 | 0.00 | 0.00 | 0.00 | 48 | 1006.3 |
| 20260506101503 | 73 | 97 | 2.6 | 6.1 | 0.00 | 0.00 | 0.00 | 50 | 1006.4 |
| 20260506101004 | 71 | 149 | 2.6 | 6.1 | 0.00 | 0.00 | 0.00 | 51 | 1006.5 |
| 20260506100504 | 73 | 159 | 1.7 | 6.1 | 0.00 | 0.00 | 0.00 | 49 | 1006.3 |
| 20260506100004 | 74 | 161 | 2.6 | 6.1 | 0.00 | 0.00 | 0.00 | 48 | 1006.4 |
| 20260506095503 | 72 | 208 | 1.7 | 6.1 | 0.00 | 0.00 | 0.00 | 51 | 1006.7 |
| 20260506095003 | 71 | 215 | 1.7 | 7.8 | 0.00 | 0.00 | 0.00 | 52 | 1006.5 |
| 20260506094524 | 71 | 186 | 2.6 | 7.8 | 0.00 | 0.00 | 0.00 | 53 | 1006.6 |
| 20260506094004 | 71 | 161 | 2.6 | 8.7 | 0.00 | 0.00 | 0.00 | 53 | 1006.5 |
| 20260506093503 | 70 | 207 | 1.7 | 8.7 | 0.00 | 0.00 | 0.00 | 56 | 1006.6 |
| 20260506093004 | 70 | 154 | 0.9 | 5.2 | 0.00 | 0.00 | 0.00 | 55 | 1006.5 |
| 20260506092504 | 69 | 143 | 0.9 | 3.5 | 0.00 | 0.00 | 0.00 | 56 | 1006.5 |
| 20260506092025 | 71 | 191 | 1.7 | 6.1 | 0.00 | 0.00 | 0.00 | 53 | 1006.6 |
| 20260506091503 | 71 | 181 | 2.6 | 6.1 | 0.00 | 0.00 | 0.00 | 52 | 1006.5 |
| 20260506091004 | 71 | 196 | 2.6 | 6.1 | 0.00 | 0.00 | 0.00 | 53 | 1006.6 |
| 20260506090504 | 70 | 208 | 2.6 | 6.1 | 0.00 | 0.00 | 0.00 | 55 | 1006.7 |
| 20260506090004 | 70 | 199 | 1.7 | 6.1 | 0.00 | 0.00 | 0.00 | 54 | 1006.5 |
| 20260506085504 | 71 | 167 | 1.7 | 5.2 | 0.00 | 0.00 | 0.00 | 52 | 1006.5 |
| 20260506085004 | 70 | 196 | 1.7 | 5.2 | 0.00 | 0.00 | 0.00 | 54 | 1006.5 |
| 20260506084504 | 69 | 201 | 1.7 | 7.0 | 0.00 | 0.00 | 0.00 | 56 | 1006.7 |
| 20260506084003 | 69 | 198 | 1.7 | 7.8 | 0.00 | 0.00 | 0.00 | 56 | 1006.6 |
| 20260506083503 | 70 | 201 | 2.6 | 7.8 | 0.00 | 0.00 | 0.00 | 54 | 1006.8 |
| 20260506083003 | 69 | 174 | 2.6 | 7.8 | 0.00 | 0.00 | 0.00 | 54 | 1006.7 |
| 20260506082503 | 70 | 195 | 1.7 | 6.1 | 0.00 | 0.00 | 0.00 | 54 | 1006.7 |
| 20260506082003 | 68 | 231 | 1.7 | 6.1 | 0.00 | 0.00 | 0.00 | 58 | 1006.8 |
| 20260506081525 | 67 | 222 | 2.6 | 7.0 | 0.00 | 0.00 | 0.00 | 57 | 1006.9 |
| 20260506081003 | 68 | 228 | 2.6 | 7.8 | 0.00 | 0.00 | 0.00 | 57 | 1006.9 |
| 20260506080503 | 67 | 236 | 3.5 | 8.7 | 0.00 | 0.00 | 0.00 | 58 | 1006.6 |
| 20260506073504 | 68 | 196 | 0.9 | 5.2 | 0.00 | 0.00 | 0.00 | 59 | 1006.5 |
| 20260506073004 | 66 | 225 | 1.7 | 8.7 | 0.00 | 0.00 | 0.00 | 61 | 1006.9 |
| 20260506072504 | 65 | 226 | 1.7 | 8.7 | 0.00 | 0.00 | 0.00 | 63 | 1006.9 |
| 20260506072003 | 64 | 217 | 1.7 | 8.7 | 0.00 | 0.00 | 0.00 | 64 | 1006.7 |
| 20260506071504 | 65 | 211 | 1.7 | 7.8 | 0.00 | 0.00 | 0.00 | 63 | 1006.7 |
| 20260506071025 | 65 | 201 | 1.7 | 7.8 | 0.00 | 0.00 | 0.00 | 62 | 1006.6 |
| 20260506070503 | 65 | 215 | 1.7 | 6.1 | 0.00 | 0.00 | 0.00 | 62 | 1006.7 |
| 20260506062504 | 64 | 81 | 0.9 | 2.6 | 0.00 | 0.00 | 0.00 | 72 | 1006.8 |
| 20260506062025 | 63 | 83 | 0.9 | 2.6 | 0.00 | 0.00 | 0.00 | 72 | 1006.5 |
| 20260506061503 | 63 | 82 | 0.9 | 2.6 | 0.00 | 0.00 | 0.00 | 73 | 1006.8 |
| 20260506061003 | 62 | 78 | 0.9 | 1.7 | 0.00 | 0.00 | 0.00 | 74 | 1006.7 |
| 20260506060504 | 62 | 72 | 0.9 | 1.7 | 0.00 | 0.00 | 0.00 | 75 | 1006.7 |
| 20260506051003 | 55 | 67 | 0.9 | 1.7 | 0.00 | 0.00 | 0.00 | 81 | 1006.4 |
| 20260506050504 | 55 | 62 | 0.9 | 1.7 | 0.00 | 0.00 | 0.00 | 81 | 1006.5 |
| 20260506045003 | 53 | 51 | 0.9 | 1.7 | 0.00 | 0.00 | 0.00 | 83 | 1006.3 |
| 20260506044525 | 53 | 50 | 0.0 | 1.7 | 0.00 | 0.00 | 0.00 | 83 | 1006.2 |
| 20260506044004 | 52 | 50 | 0.0 | 0.9 | 0.00 | 0.00 | 0.00 | 86 | 1006.4 |
| 20260506043503 | 51 | 50 | 0.0 | 0.9 | 0.00 | 0.00 | 0.00 | 87 | 1006.4 |
| 20260506043003 | 51 | 49 | 0.0 | 1.7 | 0.00 | 0.00 | 0.00 | 87 | 1006.3 |
| 20260506042504 | 50 | 48 | 0.0 | 1.7 | 0.00 | 0.00 | 0.00 | 89 | 1006.1 |
| 20260506042003 | 49 | 0 | 0.0 | 0.0 | 0.00 | 0.00 | 0.00 | 93 | 1006.1 |
| 20260506041503 | 48 | 37 | 0.0 | 0.9 | 0.00 | 0.00 | 0.00 | 94 | 1006.2 |
| 20260506041004 | 48 | 37 | 0.0 | 0.9 | 0.00 | 0.00 | 0.00 | 94 | 1005.9 |
| 20260506040503 | 48 | 37 | 0.0 | 0.9 | 0.00 | 0.00 | 0.00 | 94 | 1005.8 |
| 20260506040025 | 48 | 37 | 0.0 | 1.7 | 0.00 | 0.00 | 0.00 | 95 | 1005.9 |
| 20260506035504 | 48 | 37 | 0.0 | 1.7 | 0.00 | 0.00 | 0.00 | 95 | 1005.6 |
| 20260506035024 | 48 | 0 | 0.0 | 0.0 | 0.00 | 0.00 | 0.00 | 95 | 1005.9 |
| 20260506034504 | 48 | 0 | 0.0 | 0.0 | 0.00 | 0.00 | 0.00 | 94 | 1005.6 |
| 20260506034003 | 48 | 0 | 0.0 | 0.0 | 0.00 | 0.00 | 0.00 | 94 | 1005.8 |
| 20260506033504 | 48 | 0 | 0.0 | 0.0 | 0.00 | 0.00 | 0.00 | 94 | 1005.8 |
| 20260506033004 | 48 | 0 | 0.0 | 0.0 | 0.00 | 0.00 | 0.00 | 93 | 1005.9 |
| 20260506032503 | 48 | 0 | 0.0 | 0.0 | 0.00 | 0.00 | 0.00 | 93 | 1005.8 |
| 20260506032003 | 49 | 0 | 0.0 | 0.0 | 0.00 | 0.00 | 0.00 | 93 | 1005.7 |
| 20260506031503 | 49 | 37 | 0.0 | 0.9 | 0.00 | 0.00 | 0.00 | 93 | 1005.6 |
| 20260506031003 | 49 | 37 | 0.0 | 0.9 | 0.00 | 0.00 | 0.00 | 92 | 1005.6 |
| 20260506030525 | 50 | 37 | 0.0 | 0.9 | 0.00 | 0.00 | 0.00 | 92 | 1005.6 |
| 20260506030004 | 50 | 0 | 0.0 | 0.0 | 0.00 | 0.00 | 0.00 | 91 | 1005.7 |
| 20260506025504 | 50 | 0 | 0.0 | 0.0 | 0.00 | 0.00 | 0.00 | 91 | 1005.6 |
| 20260506025004 | 50 | 0 | 0.0 | 0.0 | 0.00 | 0.00 | 0.00 | 91 | 1005.8 |
| 20260506024503 | 51 | 32 | 0.0 | 0.9 | 0.00 | 0.00 | 0.00 | 90 | 1005.5 |
| 20260506024004 | 51 | 32 | 0.0 | 0.9 | 0.00 | 0.00 | 0.00 | 90 | 1005.5 |
| 20260506023504 | 51 | 19 | 0.0 | 1.7 | 0.00 | 0.00 | 0.00 | 90 | 1005.3 |
| 20260506023004 | 51 | 14 | 0.0 | 1.7 | 0.00 | 0.00 | 0.00 | 90 | 1005.4 |
| 20260506022504 | 51 | 252 | 0.0 | 0.9 | 0.00 | 0.00 | 0.00 | 91 | 1005.4 |
| 20260506022004 | 51 | 0 | 0.0 | 0.0 | 0.00 | 0.00 | 0.00 | 91 | 1005.8 |
| 20260506021525 | 51 | 0 | 0.0 | 0.0 | 0.00 | 0.00 | 0.00 | 91 | 1005.7 |
| 20260506021025 | 51 | 0 | 0.0 | 0.0 | 0.00 | 0.00 | 0.00 | 90 | 1005.7 |
| 20260506020504 | 51 | 0 | 0.0 | 0.0 | 0.00 | 0.00 | 0.00 | 89 | 1005.7 |
| 20260506020004 | 52 | 0 | 0.0 | 0.0 | 0.00 | 0.00 | 0.00 | 90 | 1005.5 |
| 20260506015503 | 52 | 0 | 0.0 | 0.0 | 0.00 | 0.00 | 0.00 | 90 | 1005.3 |
| 20260506015004 | 52 | 251 | 0.0 | 0.9 | 0.00 | 0.00 | 0.00 | 89 | 1005.5 |
| 20260506014505 | 53 | 251 | 0.0 | 0.9 | 0.00 | 0.00 | 0.00 | 88 | 1005.1 |
| 20260506014004 | 54 | 251 | 0.0 | 0.9 | 0.00 | 0.00 | 0.00 | 86 | 1005.5 |
| 20260506013504 | 54 | 0 | 0.0 | 0.0 | 0.00 | 0.00 | 0.00 | 85 | 1005.3 |
| 20260506013003 | 54 | 0 | 0.0 | 0.0 | 0.00 | 0.00 | 0.00 | 84 | 1005.1 |
| 20260506012504 | 55 | 0 | 0.0 | 0.0 | 0.00 | 0.00 | 0.00 | 82 | 1004.9 |
| 20260506012003 | 55 | 0 | 0.0 | 0.0 | 0.00 | 0.00 | 0.00 | 81 | 1005.3 |
| 20260506011504 | 55 | 0 | 0.0 | 0.0 | 0.00 | 0.00 | 0.00 | 80 | 1004.9 |
| 20260506011004 | 55 | 0 | 0.0 | 0.0 | 0.00 | 0.00 | 0.00 | 79 | 1005.0 |
| 20260506010504 | 56 | 251 | 0.0 | 0.9 | 0.00 | 0.00 | 0.00 | 78 | 1005.0 |
| 20260506010004 | 56 | 251 | 0.0 | 0.9 | 0.00 | 0.00 | 0.00 | 78 | 1005.1 |
| 20260506005504 | 56 | 251 | 0.0 | 0.9 | 0.00 | 0.00 | 0.00 | 77 | 1004.9 |
| 20260506005025 | 56 | 251 | 0.0 | 0.9 | 0.00 | 0.00 | 0.00 | 77 | 1005.0 |
| 20260506004504 | 56 | 251 | 0.0 | 0.9 | 0.00 | 0.00 | 0.00 | 77 | 1004.6 |
| 20260506004025 | 56 | 251 | 0.0 | 0.9 | 0.00 | 0.00 | 0.00 | 76 | 1004.9 |
| 20260506003524 | 56 | 251 | 0.0 | 0.9 | 0.00 | 0.00 | 0.00 | 76 | 1005.1 |
| 20260506003004 | 57 | 251 | 0.0 | 0.9 | 0.00 | 0.00 | 0.00 | 75 | 1004.9 |
| 20260506002504 | 57 | 251 | 0.0 | 0.9 | 0.00 | 0.00 | 0.00 | 74 | 1004.9 |
| 20260506002004 | 57 | 251 | 0.0 | 0.9 | 0.00 | 0.00 | 0.00 | 73 | 1005.0 |
| 20260506001525 | 57 | 0 | 0.0 | 0.0 | 0.00 | 0.00 | 0.00 | 73 | 1004.8 |
| 20260506001004 | 58 | 251 | 0.0 | 0.9 | 0.00 | 0.00 | 0.00 | 72 | 1004.6 |
| 20260506000504 | 58 | 251 | 0.0 | 0.9 | 0.00 | 0.00 | 0.00 | 70 | 1004.5 |
| 20260506000004 | 58 | 250 | 0.0 | 0.9 | 0.00 | 0.00 | 0.00 | 69 | 1004.8 |
| 20260505235503 | 58 | 248 | 0.0 | 1.7 | 0.00 | 0.00 | 0.00 | 69 | 1004.6 |
| 20260505235004 | 59 | 246 | 0.9 | 1.7 | 0.00 | 0.00 | 0.00 | 69 | 1004.9 |
| 20260505234503 | 59 | 245 | 0.9 | 1.7 | 0.00 | 0.00 | 0.00 | 68 | 1004.9 |
| 20260505234004 | 59 | 236 | 0.9 | 2.6 | 0.00 | 0.00 | 0.00 | 68 | 1004.9 |
| 20260505233525 | 59 | 234 | 0.9 | 2.6 | 0.00 | 0.00 | 0.00 | 68 | 1004.5 |
| 20260505233025 | 59 | 236 | 0.9 | 2.6 | 0.00 | 0.00 | 0.00 | 67 | 1004.4 |
| 20260505232504 | 60 | 232 | 0.9 | 2.6 | 0.00 | 0.00 | 0.00 | 67 | 1004.4 |
| 20260505232003 | 60 | 225 | 0.9 | 2.6 | 0.00 | 0.00 | 0.00 | 66 | 1004.8 |
| 20260505231504 | 60 | 224 | 0.9 | 2.6 | 0.00 | 0.00 | 0.00 | 66 | 1004.6 |
| 20260505231004 | 60 | 225 | 0.9 | 2.6 | 0.00 | 0.00 | 0.00 | 66 | 1004.5 |
| 20260505230504 | 60 | 225 | 0.9 | 5.2 | 0.00 | 0.00 | 0.00 | 66 | 1004.4 |
| 20260505230004 | 60 | 208 | 0.9 | 5.2 | 0.00 | 0.00 | 0.00 | 66 | 1004.8 |
| 20260505225504 | 60 | 198 | 0.9 | 5.2 | 0.00 | 0.00 | 0.00 | 65 | 1004.5 |
| 20260505225004 | 60 | 216 | 1.7 | 3.5 | 0.00 | 0.00 | 0.00 | 65 | 1004.3 |
| 20260505224504 | 60 | 232 | 1.7 | 3.5 | 0.00 | 0.00 | 0.00 | 65 | 1004.4 |
| 20260505224004 | 60 | 225 | 0.9 | 3.5 | 0.00 | 0.00 | 0.00 | 65 | 1004.5 |
| 20260505223525 | 60 | 218 | 0.9 | 2.6 | 0.00 | 0.00 | 0.00 | 65 | 1004.5 |
| 20260505223003 | 60 | 221 | 0.9 | 3.5 | 0.00 | 0.00 | 0.00 | 65 | 1004.4 |
| 20260505222504 | 60 | 226 | 1.7 | 3.5 | 0.00 | 0.00 | 0.00 | 64 | 1004.4 |
| 20260505222025 | 60 | 233 | 1.7 | 3.5 | 0.00 | 0.00 | 0.00 | 64 | 1004.6 |
| 20260505221503 | 60 | 224 | 0.9 | 3.5 | 0.00 | 0.00 | 0.00 | 64 | 1004.3 |
| 20260505221003 | 60 | 228 | 0.9 | 3.5 | 0.00 | 0.00 | 0.00 | 64 | 1004.5 |
| 20260505220504 | 60 | 236 | 0.9 | 5.2 | 0.00 | 0.00 | 0.00 | 64 | 1004.3 |
| 20260505220004 | 60 | 240 | 0.9 | 5.2 | 0.00 | 0.00 | 0.00 | 64 | 1004.3 |
| 20260505215504 | 60 | 244 | 0.9 | 5.2 | 0.00 | 0.00 | 0.00 | 63 | 1004.1 |
| 20260505215004 | 60 | 237 | 0.9 | 2.6 | 0.00 | 0.00 | 0.00 | 63 | 1004.1 |
| 20260505214503 | 60 | 225 | 0.9 | 2.6 | 0.00 | 0.00 | 0.00 | 63 | 1004.1 |
| 20260505214003 | 60 | 196 | 0.9 | 5.2 | 0.00 | 0.00 | 0.00 | 62 | 1004.2 |
| 20260505213525 | 60 | 213 | 0.9 | 5.2 | 0.00 | 0.00 | 0.00 | 62 | 1004.4 |
| 20260505213004 | 60 | 239 | 0.9 | 5.2 | 0.00 | 0.00 | 0.00 | 61 | 1004.3 |
| 20260505212504 | 60 | 213 | 0.9 | 5.2 | 0.00 | 0.00 | 0.00 | 61 | 1004.2 |
| 20260505212004 | 61 | 215 | 0.9 | 5.2 | 0.00 | 0.00 | 0.00 | 60 | 1004.4 |
| 20260505211525 | 61 | 210 | 1.7 | 5.2 | 0.00 | 0.00 | 0.00 | 60 | 1004.6 |
| 20260505211003 | 61 | 229 | 0.9 | 5.2 | 0.00 | 0.00 | 0.00 | 59 | 1004.4 |
| 20260505210504 | 61 | 226 | 0.9 | 5.2 | 0.00 | 0.00 | 0.00 | 59 | 1004.2 |
| 20260505210025 | 61 | 207 | 0.9 | 3.5 | 0.00 | 0.00 | 0.00 | 59 | 1004.3 |
| 20260505205503 | 61 | 224 | 0.9 | 2.6 | 0.00 | 0.00 | 0.00 | 59 | 1004.4 |
| 20260505205003 | 62 | 209 | 1.7 | 7.0 | 0.00 | 0.00 | 0.00 | 57 | 1004.3 |
| 20260505204504 | 62 | 210 | 1.7 | 7.0 | 0.00 | 0.00 | 0.00 | 57 | 1004.5 |
| 20260505204004 | 62 | 233 | 1.7 | 6.1 | 0.00 | 0.00 | 0.00 | 57 | 1004.4 |
| 20260505203504 | 62 | 219 | 1.7 | 6.1 | 0.00 | 0.00 | 0.00 | 56 | 1004.3 |
| 20260505203004 | 62 | 175 | 1.7 | 5.2 | 0.00 | 0.00 | 0.00 | 56 | 1004.4 |
| 20260505202525 | 62 | 133 | 0.9 | 5.2 | 0.00 | 0.00 | 0.00 | 56 | 1004.4 |
| 20260505202025 | 62 | 186 | 0.9 | 5.2 | 0.00 | 0.00 | 0.00 | 56 | 1004.3 |
| 20260505201504 | 63 | 223 | 1.7 | 5.2 | 0.00 | 0.00 | 0.00 | 55 | 1004.5 |
| 20260505201004 | 63 | 227 | 1.7 | 5.2 | 0.00 | 0.00 | 0.00 | 55 | 1004.2 |
| 20260505200504 | 63 | 213 | 1.7 | 3.5 | 0.00 | 0.00 | 0.00 | 55 | 1004.6 |
| 20260505200004 | 63 | 184 | 0.9 | 3.5 | 0.00 | 0.00 | 0.00 | 55 | 1004.4 |
| 20260505195504 | 64 | 166 | 1.7 | 5.2 | 0.00 | 0.00 | 0.00 | 55 | 1004.5 |
| 20260505195004 | 64 | 164 | 1.7 | 5.2 | 0.00 | 0.00 | 0.00 | 54 | 1004.6 |
| 20260505194504 | 64 | 159 | 0.9 | 3.5 | 0.00 | 0.00 | 0.00 | 55 | 1004.5 |
| 20260505194004 | 64 | 155 | 0.9 | 2.6 | 0.00 | 0.00 | 0.00 | 54 | 1004.4 |
| 20260505193504 | 64 | 186 | 0.9 | 6.1 | 0.00 | 0.00 | 0.00 | 54 | 1004.5 |
| 20260505193004 | 64 | 203 | 1.7 | 7.0 | 0.00 | 0.00 | 0.00 | 54 | 1004.1 |
| 20260505192525 | 65 | 191 | 1.7 | 7.0 | 0.00 | 0.00 | 0.00 | 53 | 1004.3 |
| 20260505192004 | 65 | 214 | 0.9 | 3.5 | 0.00 | 0.00 | 0.00 | 53 | 1004.4 |
| 20260505191504 | 65 | 226 | 0.9 | 3.5 | 0.00 | 0.00 | 0.00 | 53 | 1004.3 |
| 20260505191004 | 65 | 200 | 0.9 | 6.1 | 0.00 | 0.00 | 0.00 | 53 | 1004.4 |
| 20260505190504 | 65 | 201 | 1.7 | 6.1 | 0.00 | 0.00 | 0.00 | 53 | 1004.4 |
| 20260505190004 | 66 | 215 | 2.6 | 7.0 | 0.00 | 0.00 | 0.00 | 52 | 1004.5 |
| 20260505185505 | 66 | 189 | 1.7 | 7.0 | 0.00 | 0.00 | 0.00 | 52 | 1004.5 |
| 20260505185025 | 66 | 181 | 1.7 | 7.0 | 0.00 | 0.00 | 0.00 | 51 | 1004.3 |
| 20260505184504 | 66 | 202 | 1.7 | 7.8 | 0.00 | 0.00 | 0.00 | 51 | 1004.5 |
| 20260505184004 | 67 | 215 | 2.6 | 7.8 | 0.00 | 0.00 | 0.00 | 50 | 1004.5 |
| 20260505183504 | 67 | 201 | 2.6 | 7.8 | 0.00 | 0.00 | 0.00 | 50 | 1004.4 |
| 20260505183004 | 67 | 202 | 2.6 | 11.3 | 0.00 | 0.00 | 0.00 | 50 | 1004.3 |
| 20260505182504 | 67 | 221 | 3.5 | 11.3 | 0.00 | 0.00 | 0.00 | 49 | 1004.3 |
| 20260505182004 | 68 | 237 | 3.5 | 11.3 | 0.00 | 0.00 | 0.00 | 48 | 1004.3 |
| 20260505181504 | 68 | 235 | 2.6 | 8.7 | 0.00 | 0.00 | 0.00 | 48 | 1004.2 |
| 20260505181025 | 68 | 218 | 1.7 | 7.0 | 0.00 | 0.00 | 0.00 | 48 | 1004.2 |
| 20260505180504 | 69 | 199 | 2.6 | 8.7 | 0.00 | 0.00 | 0.00 | 47 | 1004.2 |